GW2364 Weather Reports


time (UTC)temp
F
wind
direction
speed
knots
gust
knots
rain 1hr
in
rain 24hr
in
rain mn
in
humidity
%
barometer
mb
20260507104504 58 65 4.3 10.4 0.00 0.00 0.00 89 1015.8
20260507103002 58 44 3.5 11.3 0.00 0.00 0.00 89 1015.5
20260507101503 58 46 3.5 12.2 0.00 0.00 0.00 88 1015.0
20260507100005 58 65 3.5 10.4 0.00 0.00 0.00 88 1014.9
20260507094502 58 5 3.5 11.3 0.00 0.00 0.00 88 1014.9
20260507093002 58 16 3.5 6.1 0.00 0.00 0.00 87 1014.8
20260507091600 59 35 2.6 5.2 0.00 0.00 0.00 87 1014.8
20260507090100 59 27 0.9 3.5 0.00 0.00 0.00 87 1014.7
20260507090004 59 27 0.0 3.5 0.00 0.00 0.00 87 1014.6
20260507084603 59 42 1.7 5.2 0.00 0.00 0.00 87 1014.5
20260507083102 59 59 1.7 6.1 0.00 0.00 0.00 87 1014.3
20260507081612 59 35 0.9 7.0 0.00 0.00 0.00 86 1014.1
20260507080116 59 30 3.5 7.8 0.00 0.00 0.00 86 1013.7
20260507080004 59 51 3.5 7.8 0.00 0.00 0.00 86 1013.7
20260507074601 59 42 2.6 9.6 0.00 0.00 0.00 86 1013.8
20260507073101 59 59 2.6 9.6 0.00 0.00 0.00 85 1013.9
20260507071612 59 61 1.7 5.2 0.00 0.00 0.00 85 1013.9
20260507070100 60 76 2.6 10.4 0.00 0.00 0.00 84 1014.1
20260507070009 60 53 2.6 10.4 0.00 0.00 0.00 84 1014.1
20260507064601 60 49 2.6 6.1 0.00 0.00 0.00 84 1014.0
20260507063104 60 85 3.5 11.3 0.00 0.00 0.00 83 1013.7
20260507061601 60 43 2.6 8.7 0.00 0.00 0.00 83 1013.7
20260507060004 60 57 3.5 7.8 0.00 0.00 0.00 84 1013.5
20260507054503 60 53 2.6 5.2 0.00 0.00 0.00 84 1013.9
20260507053003 60 49 2.6 10.4 0.00 0.00 0.00 83 1013.9
20260507051502 60 76 2.6 8.7 0.00 0.00 0.00 83 1013.7
20260507050010 61 53 5.2 9.6 0.00 0.00 0.00 83 1013.3
20260507044502 61 44 4.3 8.7 0.00 0.00 0.00 83 1013.5
20260507043009 61 15 6.1 12.2 0.00 0.00 0.00 84 1013.7
20260507041502 61 21 2.6 10.4 0.00 0.00 0.00 84 1013.3
20260507040004 61 49 2.6 5.2 0.00 0.00 0.00 84 1013.5
20260507034505 61 13 0.9 3.5 0.00 0.00 0.00 84 1013.7
20260507033008 61 5 1.7 4.3 0.00 0.00 0.00 84 1013.4
20260507031502 61 36 2.6 5.2 0.00 0.00 0.00 83 1013.2
20260507030004 62 355 2.6 6.1 0.00 0.00 0.00 83 1013.3
20260507024502 62 337 1.7 7.0 0.00 0.00 0.00 83 1012.9
20260507023004 62 14 0.9 7.8 0.00 0.00 0.00 83 1012.9
20260507021502 62 338 1.7 5.2 0.00 0.00 0.00 83 1012.6
20260507020006 63 45 1.7 5.2 0.00 0.00 0.00 83 1012.4
20260507014501 63 28 1.7 7.0 0.00 0.00 0.00 82 1012.0
20260507013001 63 284 0.9 3.5 0.00 0.00 0.00 82 1011.8
20260507011505 63 49 1.7 7.8 0.00 0.00 0.00 82 1011.5
20260507010006 63 350 1.7 6.1 0.00 0.00 0.00 82 1011.3
20260507004502 63 17 1.7 5.2 0.00 0.00 0.00 81 1011.1
20260507003003 63 53 1.7 6.1 0.00 0.00 0.00 81 1011.0
20260507001502 63 360 1.7 10.4 0.00 0.00 0.00 82 1011.1
20260507000007 63 17 2.6 7.8 0.00 0.00 0.00 81 1011.0
20260506234502 63 26 2.6 10.4 0.00 0.00 0.00 81 1010.7
20260506233003 63 27 2.6 7.8 0.00 0.00 0.00 80 1010.6
20260506231503 63 30 1.7 5.2 0.00 0.00 0.00 80 1010.6
20260506230004 63 26 2.6 9.6 0.00 0.00 0.00 81 1010.6
20260506224502 63 327 1.7 7.8 0.00 0.00 0.00 80 1010.6
20260506223002 63 299 1.7 9.6 0.00 0.00 0.00 80 1010.5
20260506221507 63 355 3.5 10.4 0.00 0.00 0.00 79 1010.4
20260506220013 64 330 3.5 10.4 0.00 0.00 0.00 78 1010.6
20260506214504 65 340 3.5 9.6 0.00 0.00 0.00 76 1010.3
20260506213002 66 360 3.5 10.4 0.00 0.00 0.00 76 1010.1
20260506211502 68 355 5.2 11.3 0.00 0.00 0.00 72 1010.1
20260506210010 68 9 1.7 12.2 0.00 0.00 0.00 75 1010.2
20260506204502 70 355 3.5 7.0 0.00 0.00 0.00 71 1010.3
20260506203002 71 13 2.6 11.3 0.00 0.00 0.00 72 1010.3
20260506201502 72 5 3.5 11.3 0.00 0.00 0.00 73 1010.2
20260506200005 73 317 6.1 10.4 0.00 0.00 0.00 72 1009.9
20260506194502 73 45 2.6 10.4 0.00 0.00 0.00 75 1009.7
20260506193001 74 21 5.2 11.3 0.00 0.00 0.00 72 1009.6
20260506191502 76 32 5.2 12.2 0.00 0.00 0.00 74 1009.4
20260506190005 76 34 2.6 7.8 0.00 0.00 0.00 73 1009.9
20260506184501 77 42 3.5 7.0 0.00 0.00 0.00 73 1009.8
20260506183004 78 34 1.7 5.2 0.00 0.00 0.00 73 1009.5
20260506181501 77 49 2.6 6.1 0.00 0.00 0.00 74 1009.7
20260506180008 75 55 2.6 7.8 0.00 0.00 0.00 76 1009.5
20260506174501 75 69 1.7 6.1 0.00 0.00 0.00 76 1009.5
20260506173001 73 75 2.6 7.0 0.00 0.00 0.00 79 1009.5
20260506171501 71 75 2.6 6.1 0.00 0.00 0.00 81 1009.8
20260506170003 68 50 3.5 7.8 0.00 0.00 0.00 84 1009.7
20260506164502 65 68 3.5 9.6 0.00 0.00 0.00 90 1010.2
20260506163005 63 319 1.7 16.5 0.00 0.00 0.00 91 1010.7
20260506161502 64 54 9.6 20.0 0.00 0.00 0.00 88 1010.7
20260506160005 65 52 11.3 23.5 0.00 0.00 0.00 89 1010.3
20260506154501 67 5 9.6 16.5 0.00 0.00 0.00 87 1010.3
20260506153005 70 28 7.8 14.8 0.00 0.00 0.00 83 1010.0
20260506151501 77 101 0.0 2.6 0.00 0.00 0.00 87 1009.1
20260506150003 77 101 0.0 2.6 0.00 0.00 0.00 86 1009.2
20260506144500 77 88 0.9 3.5 0.00 0.00 0.00 86 1008.6
20260506143001 77 94 0.9 5.2 0.00 0.00 0.00 88 1008.2
20260506141502 76 94 0.9 5.2 0.00 0.00 0.00 90 1007.7
20260506140003 75 69 0.0 2.6 0.00 0.00 0.00 91 1008.4
20260506134500 75 62 0.9 2.6 0.00 0.00 0.00 91 1007.7
20260506133001 74 92 0.9 3.5 0.00 0.00 0.00 92 1007.8
20260506131504 74 65 0.9 5.2 0.00 0.00 0.00 93 1007.6
20260506130004 74 80 0.0 2.6 0.00 0.00 0.00 93 1007.4
20260506124501 74 125 0.9 3.5 0.00 0.00 0.00 93 1007.2
20260506123002 73 71 0.9 1.7 0.00 0.00 0.00 93 1007.2
20260506121601 73 223 0.0 0.9 0.00 0.00 0.00 93 1007.3
20260506120115 74 223 0.0 0.9 0.00 0.00 0.00 93 1007.2
20260506120006 74 223 0.0 0.9 0.00 0.00 0.00 93 1007.1
20260506114502 74 223 0.0 0.9 0.00 0.00 0.00 92 1007.0